[[{"header":{"parameterUnit":"m.s-1","parameterCategory":1,"la1":30.2991,"la2":30.254,"lo1":-89.0895,"lo2":-89.0444,"dx":0.0017,"dy":0.0017,"nx":28,"ny":28,"refTime":"2023-01-12T15:00:00:Z","depth":0,"parameterNumber":2,"parameterNumberName":"U-component_of_WINDS"},"data":[0,0,0,0,0,0,0,0,0,0,0,0,0,0,0,0,0,0,0,0,0,0,0,0,0,0,0,0,0,0,0,0,0,0,0,0,0,0,0,0,0,0,0,0,0,0,0,0,0,0,0,0,0,0,0,0,0,0,3.9197,3.9196,0,3.9131,3.9131,3.913,3.9052,3.9051,3.905,3.9049,3.8978,3.8978,3.8977,0,0,0,0,0,0,0,0,0,0,0,0,0,3.9254,3.9253,3.9197,3.9196,3.9196,3.9131,3.913,3.913,3.9052,3.9051,3.905,3.9048,3.8979,3.8978,3.8977,0,0,0,0,0,0,0,0,0,0,0,0,0,3.9213,3.9253,3.9197,3.9149,3.9144,3.9132,3.913,3.9129,3.9053,3.9051,3.9049,3.9048,3.8979,3.8978,3.8977,3.9005,0,0,3.8973,3.8973,0,0,0,0,0,0,0,0,3.9215,3.9211,3.9157,3.9153,3.9147,3.9098,3.9125,3.9087,3.9053,3.9088,3.9049,3.9047,3.902,3.9015,3.9006,3.9001,3.8998,3.8973,3.8972,3.8972,3.8972,0,0,0,0,0,0,0,3.9218,3.9213,3.9171,3.9157,3.915,3.9131,3.9123,3.9117,3.9064,3.9084,3.9079,3.9072,3.9016,3.9008,3.9004,3.8997,3.8973,3.8972,3.8971,3.8971,3.9014,3.9015,0,0,0,0,0,0,3.9229,3.9216,3.9173,3.9169,3.9178,3.9131,3.9122,3.9116,3.9064,3.9054,3.9074,3.9069,3.9011,3.9006,3.9001,3.9032,3.8972,3.8971,3.897,3.9012,3.9014,3.9016,0,0,0,0,0,0,3.923,3.9226,3.9176,3.9191,3.9183,3.9132,3.9125,3.9115,3.9107,3.9056,3.9046,3.9075,3.9009,3.9003,3.9005,3.9029,3.897,3.8969,3.901,3.9013,3.9015,3.9094,0,0,0,0,0,0,3.9232,3.9227,3.9237,3.9192,3.9183,3.9182,3.9126,3.9115,3.9105,3.9098,3.9054,3.9045,3.9007,3.9007,3.9004,3.9026,3.8968,3.9007,3.9011,3.9014,3.9089,3.9099,3.9107,0,0,0,0,0,3.9235,3.9261,3.9238,3.9233,3.9195,3.9183,3.9178,3.9134,3.9107,3.9117,3.9085,3.9047,3.9026,3.9008,3.9004,3.9026,3.9006,3.901,3.9014,3.9085,3.9097,3.9107,0,0,0,0,0,0,3.9309,3.9254,3.9228,3.9241,3.9218,3.917,3.9181,3.9148,3.9131,3.9125,3.9071,3.9061,3.9071,3.9048,3.9028,3.9051,3.901,3.9014,3.9066,3.9077,3.9086,3.9092,3.8967,0,0,0,0,0,3.9327,3.9323,3.9275,3.929,3.928,3.9233,3.9226,3.9195,3.9168,3.9157,3.9125,3.9099,3.9087,3.908,3.9066,3.9085,3.9075,3.9098,3.9107,3.9115,3.9119,3.9128,3.9139,3.903,3.903,3.903,0,0,3.9364,3.9334,3.9334,3.9305,3.9283,3.9279,3.9225,3.9223,3.922,3.9156,3.9157,3.9133,3.9101,3.9112,3.9115,3.9093,3.9147,3.912,3.9127,3.9126,3.9134,3.9144,3.9153,3.9032,3.9032,3.9032,0,0,3.9431,3.9407,3.9418,3.9398,3.9366,3.9334,3.9337,3.9295,3.9277,3.9277,3.923,3.9224,3.9204,3.9184,3.9171,3.9231,3.9196,3.9228,3.9277,3.9287,3.9295,3.9303,3.9326,3.9334,3.9232,3.9232,3.9232,0,3.9481,3.9475,3.9428,3.943,3.9419,3.9362,3.9373,3.9355,3.932,3.9314,3.929,3.9265,3.9239,3.9245,3.926,3.9251,3.9253,3.9233,3.9298,3.9305,3.9311,3.9332,3.9341,3.9236,3.9236,3.9235,3.9235,0,3.9538,3.9535,3.9548,3.9517,3.9507,3.9513,3.9468,3.9463,3.9433,3.9404,3.9405,3.9372,3.9352,3.935,3.932,3.9352,3.934,3.9308,3.9267,3.9327,3.9346,3.9353,3.9242,3.9241,3.9239,3.9238,0,0,3.9651,3.9595,3.96,3.9587,3.9547,3.9543,3.9547,3.9528,3.9526,3.9503,3.9506,3.9491,3.9461,3.9447,3.9413,3.9422,3.9473,3.9388,3.9387,3.9407,3.9509,3.9535,3.9545,3.9449,3.945,3.9451,3.9512,0,3.9711,3.9716,3.9675,3.9691,3.9687,3.9634,3.9637,3.9613,3.9587,3.9579,3.9548,3.954,3.9501,3.9492,3.9498,3.9466,3.9493,3.9461,3.9451,3.9452,3.9463,3.9555,3.9582,3.9641,3.9519,3.9521,3.9521,0,3.9783,3.9766,3.9783,3.9744,3.9741,3.9745,3.9725,3.9718,3.969,3.967,3.9655,3.9617,3.9618,3.9578,3.9579,3.9558,3.9551,3.9535,3.9536,3.9535,3.9491,3.9558,3.9659,3.9669,3.9532,3.9531,3.9531,0,3.9866,3.9847,3.9854,3.9844,3.9798,3.9803,3.9784,3.9754,3.9746,3.9727,3.9722,3.9703,3.9694,3.968,3.9639,3.9613,3.9645,3.9601,3.9629,3.963,3.9639,3.964,3.9743,3.9632,3.9632,3.9632,3.9632,0,3.9939,3.9951,3.9891,3.9896,3.9909,3.9861,3.9874,3.985,3.9824,3.9823,3.9774,3.9774,3.9718,3.9712,3.9679,3.9686,3.9681,3.9665,3.9657,3.9671,3.9673,3.9667,3.9663,3.9634,3.9634,3.9633,3.9633,0,4.0034,3.9994,3.9999,3.9956,3.9946,3.9957,3.992,3.9923,3.9893,3.9892,3.9889,3.9842,3.9833,3.979,3.9769,3.9747,3.9765,3.9747,3.9776,3.977,3.9801,3.98,3.9905,3.9917,3.9798,3.98,3.98,0,4.0084,4.0093,4.0051,4.0048,4.0032,4.0026,4.0018,3.997,3.9964,3.9933,3.994,3.9926,3.9913,3.99,3.9864,3.9848,3.983,3.9868,3.9827,3.9842,3.9833,3.9834,3.9835,3.9878,3.9879,3.988,3.9881,0,4.0179,4.0159,4.0149,4.0133,4.0125,4.0109,4.0091,4.0091,4.0038,4.0033,4.0023,4.0013,3.9993,3.998,3.9959,3.9938,3.9902,3.9894,3.99,3.9916,3.9933,3.9926,3.9802,3.9892,3.9891,3.9891,3.989,3.9889,4.0254,4.026,4.0232,4.0223,4.0205,4.0189,4.019,4.0161,4.0152,4.0133,4.0105,4.0099,4.0071,4.0039,4.0021,4.0016,3.9995,4.0003,4.0006,4.0009,4.0017,3.9932,4.0011,4.0011,4.0011,4.001,4.001,0,4.0348,4.0327,4.0319,4.0296,4.0289,4.0255,4.0234,4.023,4.0226,4.0203,4.0192,4.0181,4.0169,4.0132,4.0117,4.0119,4.0102,4.0117,4.0117,4.0114,4.0035,4.0033,4.0131,4.0131,4.0131,4.0131,4.0131,4.0131,4.0396,4.0404,4.0381,4.038,4.0359,4.0354,4.0345,4.033,4.0312,4.0303,4.0293,4.0269,4.0241,4.0223,4.0211,4.02,4.0197,4.0218,4.0202,4.013,4.0119,4.0108,4.0105,4.0217,4.0218,4.0281,4.0282,4.0282]},{"header":{"parameterUnit":"m.s-1","parameterCategory":1,"la1":30.2991,"la2":30.254,"lo1":-89.0895,"lo2":-89.0444,"dx":0.0017,"dy":0.0017,"nx":28,"ny":28,"refTime":"2023-01-12T15:00:00:Z","depth":0,"parameterNumber":3,"parameterNumberName":"V-component_of_WINDS"},"data":[0,0,0,0,0,0,0,0,0,0,0,0,0,0,0,0,0,0,0,0,0,0,0,0,0,0,0,0,0,0,0,0,0,0,0,0,0,0,0,0,0,0,0,0,0,0,0,0,0,0,0,0,0,0,0,0,0,0,-2.8543,-2.8542,0,-2.8441,-2.844,-2.8439,-2.8417,-2.8418,-2.8419,-2.842,-2.8309,-2.8305,-2.8301,0,0,0,0,0,0,0,0,0,0,0,0,0,-2.8713,-2.871,-2.8543,-2.8542,-2.8541,-2.8441,-2.844,-2.8438,-2.8417,-2.8418,-2.8419,-2.842,-2.831,-2.8306,-2.8301,0,0,0,0,0,0,0,0,0,0,0,0,0,-2.8628,-2.8709,-2.8543,-2.8518,-2.8515,-2.8442,-2.844,-2.8438,-2.8417,-2.8418,-2.8419,-2.8421,-2.8311,-2.8306,-2.8301,-2.8243,0,0,-2.8284,-2.8281,0,0,0,0,0,0,0,0,-2.8633,-2.8622,-2.8523,-2.852,-2.8516,-2.8443,-2.8459,-2.8372,-2.8417,-2.8454,-2.842,-2.8421,-2.8352,-2.8343,-2.8321,-2.8238,-2.8233,-2.8283,-2.828,-2.8277,-2.8276,0,0,0,0,0,0,0,-2.8639,-2.8626,-2.8503,-2.8522,-2.8517,-2.851,-2.8499,-2.8443,-2.8397,-2.8451,-2.8449,-2.8438,-2.835,-2.8327,-2.8319,-2.8231,-2.8283,-2.8278,-2.8275,-2.8273,-2.8094,-2.8093,0,0,0,0,0,0,-2.865,-2.8631,-2.8506,-2.8499,-2.8579,-2.8506,-2.8494,-2.8465,-2.8398,-2.8389,-2.8437,-2.8437,-2.8336,-2.8325,-2.8315,-2.8242,-2.8277,-2.8272,-2.8269,-2.8096,-2.8094,-2.8093,0,0,0,0,0,0,-2.8654,-2.8639,-2.851,-2.8565,-2.8548,-2.8502,-2.847,-2.8463,-2.8439,-2.8388,-2.8379,-2.8421,-2.8336,-2.8322,-2.8261,-2.8238,-2.827,-2.8265,-2.8098,-2.8095,-2.8093,-2.8098,0,0,0,0,0,0,-2.8659,-2.8641,-2.862,-2.8565,-2.8545,-2.846,-2.8469,-2.846,-2.8431,-2.843,-2.8371,-2.8362,-2.8336,-2.827,-2.8256,-2.8231,-2.826,-2.8099,-2.8097,-2.8094,-2.8099,-2.8096,-2.8093,0,0,0,0,0,-2.8665,-2.8624,-2.8619,-2.8604,-2.8518,-2.8459,-2.8447,-2.842,-2.8429,-2.8406,-2.8373,-2.8364,-2.8243,-2.8264,-2.8248,-2.8221,-2.8101,-2.8097,-2.8094,-2.8101,-2.8097,-2.8093,0,0,0,0,0,0,-2.8675,-2.8616,-2.861,-2.855,-2.851,-2.8456,-2.8426,-2.8417,-2.8372,-2.8373,-2.8339,-2.8326,-2.8266,-2.8237,-2.8261,-2.8161,-2.8172,-2.8166,-2.8182,-2.8178,-2.8175,-2.8182,-2.8256,0,0,0,0,0,-2.867,-2.8629,-2.8579,-2.8531,-2.8511,-2.8473,-2.8445,-2.8428,-2.8384,-2.8367,-2.8329,-2.8285,-2.8237,-2.8206,-2.8159,-2.8095,-2.8081,-2.8069,-2.8066,-2.8064,-2.8058,-2.8021,-2.8015,-2.8082,-2.8082,-2.8082,0,0,-2.866,-2.8623,-2.8598,-2.8532,-2.8499,-2.8455,-2.8458,-2.8412,-2.8378,-2.8359,-2.8299,-2.827,-2.8219,-2.8156,-2.8126,-2.813,-2.8037,-2.806,-2.8058,-2.8053,-2.8017,-2.8011,-2.8005,-2.808,-2.808,-2.8081,0,0,-2.8618,-2.8587,-2.8543,-2.851,-2.8461,-2.8436,-2.8425,-2.8373,-2.8353,-2.8294,-2.8278,-2.8237,-2.8155,-2.8119,-2.809,-2.8036,-2.8025,-2.8021,-2.8004,-2.7969,-2.7963,-2.7958,-2.7938,-2.7931,-2.8016,-2.8016,-2.8016,0,-2.8611,-2.8546,-2.8521,-2.8476,-2.8446,-2.843,-2.8384,-2.8353,-2.829,-2.8269,-2.8275,-2.8172,-2.8136,-2.8065,-2.8052,-2.8029,-2.8014,-2.8027,-2.7967,-2.7961,-2.7956,-2.7936,-2.7929,-2.8016,-2.8016,-2.8016,-2.8016,0,-2.8539,-2.8495,-2.8465,-2.8407,-2.8374,-2.8329,-2.8295,-2.8264,-2.825,-2.8224,-2.8162,-2.8119,-2.8063,-2.8045,-2.8029,-2.797,-2.7974,-2.7974,-2.7984,-2.795,-2.7931,-2.7923,-2.8016,-2.8016,-2.8016,-2.8016,0,0,-2.85,-2.843,-2.8419,-2.8393,-2.8337,-2.8301,-2.8255,-2.8202,-2.8176,-2.8133,-2.8092,-2.8024,-2.8023,-2.799,-2.7971,-2.794,-2.7898,-2.7943,-2.7941,-2.7935,-2.7829,-2.7829,-2.7821,-2.7892,-2.789,-2.7889,-2.7833,0,-2.8451,-2.8369,-2.8345,-2.8276,-2.8233,-2.8217,-2.8176,-2.8137,-2.8111,-2.8069,-2.804,-2.7992,-2.7995,-2.7975,-2.7944,-2.791,-2.7876,-2.7914,-2.7851,-2.7849,-2.7863,-2.7811,-2.7811,-2.7761,-2.7826,-2.7824,-2.7823,0,-2.8383,-2.8341,-2.8268,-2.8219,-2.82,-2.8164,-2.8114,-2.8075,-2.8029,-2.8013,-2.7977,-2.796,-2.7908,-2.7922,-2.785,-2.7876,-2.7848,-2.7828,-2.7825,-2.7817,-2.7833,-2.78,-2.7744,-2.7736,-2.7811,-2.7812,-2.7813,0,-2.836,-2.8286,-2.8233,-2.821,-2.8151,-2.8126,-2.81,-2.8056,-2.8026,-2.7981,-2.7961,-2.7911,-2.7882,-2.7842,-2.7812,-2.7825,-2.7741,-2.7753,-2.7724,-2.7725,-2.7706,-2.7707,-2.7643,-2.769,-2.769,-2.7691,-2.7691,0,-2.8308,-2.8263,-2.8222,-2.8189,-2.8138,-2.811,-2.806,-2.8033,-2.7994,-2.7954,-2.7936,-2.7898,-2.7861,-2.7817,-2.7793,-2.7736,-2.7723,-2.7706,-2.77,-2.7707,-2.7709,-2.7688,-2.769,-2.7689,-2.7689,-2.7689,-2.769,0,-2.8273,-2.8244,-2.8185,-2.8135,-2.8121,-2.8086,-2.8042,-2.8008,-2.7982,-2.7931,-2.7917,-2.7876,-2.7824,-2.779,-2.7722,-2.7706,-2.7643,-2.7638,-2.7659,-2.7656,-2.7629,-2.7632,-2.7548,-2.7535,-2.7592,-2.7592,-2.7591,0,-2.8241,-2.8207,-2.8154,-2.8127,-2.8101,-2.8058,-2.8028,-2.7999,-2.7968,-2.7914,-2.7886,-2.7834,-2.779,-2.7707,-2.7669,-2.7618,-2.7611,-2.7585,-2.7602,-2.7611,-2.7609,-2.7611,-2.7606,-2.7582,-2.7581,-2.7581,-2.758,0,-2.8187,-2.8174,-2.8133,-2.8086,-2.8051,-2.8012,-2.7973,-2.7952,-2.7916,-2.7881,-2.783,-2.7796,-2.7729,-2.7676,-2.7621,-2.7592,-2.7579,-2.7576,-2.7566,-2.7572,-2.7585,-2.7577,-2.7651,-2.7577,-2.7577,-2.7578,-2.7578,-2.7578,-2.8152,-2.8121,-2.8079,-2.8033,-2.8001,-2.7965,-2.7931,-2.7902,-2.7859,-2.7803,-2.7788,-2.7734,-2.7688,-2.7613,-2.7583,-2.7538,-2.7541,-2.7527,-2.7523,-2.752,-2.7519,-2.7594,-2.7528,-2.7528,-2.7528,-2.7528,-2.7528,0,-2.8096,-2.8068,-2.8027,-2.7974,-2.7937,-2.7932,-2.7888,-2.7857,-2.781,-2.777,-2.7728,-2.7668,-2.7617,-2.7576,-2.7523,-2.7495,-2.7487,-2.7481,-2.7482,-2.7476,-2.7521,-2.7534,-2.7488,-2.7488,-2.7488,-2.7488,-2.7488,-2.7488,-2.8062,-2.8009,-2.7992,-2.7922,-2.7894,-2.7842,-2.7818,-2.7784,-2.7752,-2.7686,-2.7645,-2.7619,-2.7577,-2.7521,-2.7474,-2.7463,-2.7443,-2.7438,-2.7426,-2.7468,-2.7472,-2.7477,-2.7489,-2.7434,-2.7434,-2.7384,-2.7383,-2.7383]}]]